404 - Page Not Found

404

Error - Page Not Found


Please check the URL.

Otherwise, click here to be redirected to the homepage.

  • Currently

    Reported at Minneapolis, Minneapolis-St. Paul International Airport, MN
    1:53 PM CST FRI FEB 23 2018
  • 32°F0°C
  • Partly Cloudy
    Partly Cloudy
  • Feels Like:25°F-4°CDew Point:21°F-6°CHumidity:64% Winds:SSW 9 mph 14 kph
    Pressure:30.18 in1022 hPaVisibility:10.00 miles16090.00 meters
Time Weather Temp Dew Point
Humidity Winds Visibility Pressure Precipitation
1 hr 24 hr
Friday, February 23
14:53 14:53 Mostly Sunny Mostly Sunny 32°F0°C 22°F-6°C 66% WSW 9 mphWSW 15 kph 10.0 miles16.1 km 30.18 in1022 hPa 0.00 in0.00 mm --
14:49 14:49 Partly Cloudy Partly Cloudy 32°F0°C 21°F-6°C 64% WSW 12 mphWSW 19 kph 10.0 miles16.1 km 30.18 in1022 hPa 0.00 in0.00 mm --
13:53 13:53 Mostly Cloudy Mostly Cloudy 31°F-1°C 23°F-5°C 72% W 9 mphW 15 kph 10.0 miles16.1 km 30.18 in1022 hPa 0.00 in0.00 mm --
12:53 12:53 Cloudy Cloudy 29°F-2°C 23°F-5°C 78% WNW 12 mphWNW 19 kph 10.0 miles16.1 km 30.18 in1022 hPa 0.00 in0.00 mm --
11:53 11:53 Cloudy Cloudy 28°F-2°C 23°F-5°C 81% W 12 mphW 19 kph 9.0 miles14.5 km 30.15 in1021 hPa 0.00 in0.00 mm --
11:31 11:31 Mostly Cloudy Mostly Cloudy 27°F-3°C 22°F-6°C 81% NW 10 mphNW 17 kph 9.0 miles14.5 km 30.15 in1021 hPa 0.00 in0.00 mm --
10:53 10:53 Cloudy Cloudy 26°F-3°C 23°F-5°C 88% WNW 12 mphWNW 19 kph 8.0 miles12.9 km 30.12 in1020 hPa 0.00 in0.00 mm --
09:53 09:53 Cloudy Cloudy 26°F-3°C 24°F-4°C 92% WNW 13 mphWNW 20 kph 8.0 miles12.9 km 30.12 in1020 hPa 0.00 in0.00 mm --
08:53 08:53 Cloudy Cloudy 26°F-3°C 25°F-4°C 96% W 13 mphW 20 kph 7.0 miles11.3 km 30.09 in1019 hPa 0.00 in0.00 mm --
08:25 08:25 Cloudy With Mist And Fog Cloudy With Mist And Fog 27°F-3°C 26°F-3°C 96% W 9 mphW 15 kph 6.0 miles9.7 km 30.06 in1018 hPa 0.00 in0.00 mm --
08:03 08:03 Cloudy With Mist And Fog Cloudy With Mist And Fog 27°F-3°C 26°F-3°C 96% W 10 mphW 17 kph 6.0 miles9.7 km 30.06 in1018 hPa 0.00 in0.00 mm --
07:53 07:53 Cloudy With Mist And Fog Cloudy With Mist And Fog 27°F-3°C 26°F-3°C 96% W 8 mphW 13 kph 6.0 miles9.7 km 30.06 in1018 hPa 0.00 in0.00 mm --
06:53 06:53 Cloudy With Mist And Fog Cloudy With Mist And Fog 26°F-3°C 26°F-3°C 100% W 3 mphW 6 kph 5.0 miles8.0 km 30.06 in1018 hPa 0.00 in0.00 mm --
05:53 05:53 Cloudy With Mist And Fog Cloudy With Mist And Fog 27°F-3°C 27°F-3°C 100% CalmCalm 3.0 miles4.8 km 30.06 in1018 hPa 0.00 in0.03 mm --
05:30 05:30 Cloudy With Mist And Fog Cloudy With Mist And Fog 26°F-3°C 26°F-3°C 100% CalmCalm 3.0 miles4.8 km 30.06 in1018 hPa 0.00 in0.03 mm --
05:11 05:11 Cloudy With Light Snow Cloudy With Light Snow 26°F-3°C 26°F-3°C 100% CalmCalm 2.5 miles4.0 km 30.03 in1017 hPa 0.00 in0.03 mm --
04:53 04:53 Cloudy With Light Snow Cloudy With Light Snow 26°F-3°C 26°F-3°C 100% SSE 3 mphSSE 6 kph 5.0 miles8.0 km 30.06 in1018 hPa 0.01 in6.45 mm --
04:50 04:50 Cloudy With Mist And Fog Cloudy With Mist And Fog 27°F-3°C 27°F-3°C 100% SSE 3 mphSSE 6 kph 5.0 miles8.0 km 30.06 in1018 hPa 0.01 in6.45 mm --
03:53 03:53 Cloudy With Light Snow Cloudy With Light Snow 26°F-3°C 26°F-3°C 100% E 7 mphE 11 kph 1.5 miles2.4 km 30.06 in1018 hPa 0.02 in12.90 mm --
03:45 03:45 Cloudy With Light Snow Cloudy With Light Snow 26°F-3°C 26°F-3°C 100% E 5 mphE 7 kph 1.5 miles2.4 km 30.09 in1019 hPa 0.02 in12.90 mm --
03:26 03:26 Cloudy With Light Snow Cloudy With Light Snow 26°F-3°C 26°F-3°C 100% E 5 mphE 7 kph 1.2 miles2.0 km 30.09 in1019 hPa 0.02 in12.90 mm --
03:03 03:03 Cloudy With Light Snow Cloudy With Light Snow 26°F-3°C 26°F-3°C 100% E 7 mphE 11 kph 1.2 miles2.0 km 30.09 in1019 hPa 0.00 in0.03 mm --
02:53 02:53 Mostly Cloudy With Scattered Snow Showers Mostly Cloudy With Scattered Snow Showers 26°F-3°C 26°F-3°C 100% E 5 mphE 7 kph 0.8 miles1.2 km 30.12 in1020 hPa 0.05 in32.26 mm --
02:36 02:36 Mostly Cloudy With Scattered Snow Showers Mostly Cloudy With Scattered Snow Showers 26°F-3°C 26°F-3°C 100% E 7 mphE 11 kph 0.8 miles1.2 km 30.12 in1020 hPa 0.03 in19.35 mm --
02:19 02:19 Cloudy With Light Snow Cloudy With Light Snow 26°F-3°C 26°F-3°C 100% E 6 mphE 9 kph 1.2 miles2.0 km 30.12 in1020 hPa 0.02 in12.90 mm --
02:00 02:00 Mostly Cloudy With Scattered Snow Showers Mostly Cloudy With Scattered Snow Showers 26°F-3°C 26°F-3°C 100% E 7 mphE 11 kph 0.8 miles1.2 km 30.15 in1021 hPa 0.00 in0.03 mm --
01:53 01:53 Mostly Cloudy With Snow Mostly Cloudy With Snow 26°F-3°C 26°F-3°C 100% ENE 7 mphENE 11 kph 0.5 miles0.8 km 30.15 in1021 hPa 0.08 in51.61 mm --
01:46 01:46 Mostly Cloudy With Scattered Snow Showers Mostly Cloudy With Scattered Snow Showers 26°F-3°C 26°F-3°C 100% ENE 7 mphENE 11 kph 0.8 miles1.2 km 30.15 in1021 hPa 0.06 in38.71 mm --
01:37 01:37 Mostly Cloudy With Scattered Snow Showers Mostly Cloudy With Scattered Snow Showers 26°F-3°C 26°F-3°C 100% E 6 mphE 9 kph 1.0 miles1.6 km 30.15 in1021 hPa 0.06 in38.71 mm --
01:04 01:04 Mostly Cloudy With Snow Mostly Cloudy With Snow 26°F-3°C 26°F-3°C 100% ENE 7 mphENE 11 kph 0.5 miles0.8 km 30.18 in1022 hPa 0.01 in6.45 mm --
404 - Page Not Found

404

Error - Page Not Found


Please check the URL.

Otherwise, click here to be redirected to the homepage.